KB9MXL Weather Reports


time (UTC)temp
C
wind
direction
speed
KPH
gust
KPH
rain 1hr
cm
rain 24hr
cm
rain mn
cm
humidity
%
barometer
mb
20260906022524 22 136 0.0 0.0 0.00 0.00 0.00 89 1014.2
20260906022024 23 136 0.0 0.0 0.00 0.00 0.00 89 1014.1
20260906021022 23 136 0.0 0.0 0.00 0.00 0.00 88 1014.2
20260906020521 23 136 0.0 1.6 0.00 0.00 0.00 88 1014.1
20260906020030 23 136 0.0 1.6 0.00 0.00 0.00 88 1014.1
20260906015524 23 110 0.0 0.0 0.00 0.00 0.00 87 1014.2
20260906015019 23 110 0.0 0.0 0.00 0.00 0.00 87 1014.1
20260906014518 23 110 0.0 0.0 0.00 0.00 0.00 87 1014.0
20260906014019 23 110 0.0 0.0 0.00 0.00 0.00 86 1013.8
20260906013515 24 110 0.0 0.0 0.00 0.00 0.00 86 1013.6
20260906013015 24 99 0.0 0.0 0.00 0.00 0.00 85 1013.7
20260906012514 24 99 0.0 0.0 0.00 0.00 0.00 85 1013.6
20260906012013 24 99 0.0 0.0 0.00 0.00 0.00 85 1013.5
20260906011017 25 130 0.0 0.0 0.00 0.00 0.00 84 1013.5
20260906010513 25 130 0.0 1.6 0.00 0.00 0.00 84 1013.5
20260906010013 25 130 0.0 1.6 0.00 0.00 0.00 83 1013.4
20260906005512 25 61 0.0 1.6 0.00 0.00 0.00 83 1013.3
20260906005013 25 13 0.0 3.2 0.00 0.00 0.00 83 1013.3
20260906004513 26 12 0.0 4.8 0.00 0.00 0.00 83 1013.2
20260906004012 26 71 0.0 4.8 0.00 0.00 0.00 82 1013.3
20260906003512 26 79 0.0 3.2 0.00 0.00 0.00 82 1013.2
20260906003021 26 41 0.0 0.0 0.00 0.00 0.00 81 1013.2
20260906002511 26 41 0.0 0.0 0.00 0.00 0.00 80 1013.1
20260906002013 27 41 0.0 0.0 0.00 0.00 0.00 80 1013.1
20260906001012 27 148 0.0 4.8 0.00 0.00 0.00 78 1013.1
20260906000512 27 57 0.0 3.2 0.00 0.00 0.00 78 1013.0
20260906000013 27 316 0.0 1.6 0.00 0.00 0.00 77 1013.0
20260905235512 28 311 0.0 1.6 0.00 0.00 0.00 77 1013.0
20260905235014 28 71 0.0 1.6 0.00 0.00 0.00 76 1012.9
20260905234513 28 75 0.0 1.6 0.00 0.00 0.00 75 1012.9
20260905234017 28 89 0.0 1.6 0.00 0.00 0.00 75 1013.0
20260905233512 28 109 0.0 1.6 0.00 0.00 0.00 75 1012.8
20260905233013 29 352 0.0 1.6 0.00 0.00 0.00 75 1012.7
20260905232513 29 53 0.0 1.6 0.00 0.00 0.00 74 1012.6
20260905232012 29 72 0.0 0.0 0.00 0.00 0.00 74 1012.6
20260905231010 30 93 0.0 1.6 0.00 0.00 0.00 74 1012.4
20260905230511 30 91 0.0 1.6 0.00 0.00 0.00 74 1012.5
20260905230012 30 60 0.0 1.6 0.00 0.00 0.00 73 1012.4
20260905225511 30 43 0.0 3.2 0.00 0.00 0.00 73 1012.4
20260905225010 30 77 0.0 3.2 0.00 0.00 0.00 72 1012.5
20260905224511 31 19 0.0 0.0 0.00 0.00 0.00 72 1012.5
20260905224010 31 324 0.0 1.6 0.00 0.00 0.00 71 1012.6
20260905223510 31 318 0.0 1.6 0.00 0.00 0.00 71 1012.5
20260905223029 31 327 0.0 1.6 0.00 0.00 0.00 70 1012.5
20260905222510 32 327 0.0 1.6 0.00 0.00 0.00 69 1012.4
20260905222013 32 4 0.0 3.2 0.00 0.00 0.00 67 1012.5
20260905221012 33 25 0.0 1.6 0.00 0.00 0.00 66 1012.3
20260905220510 33 332 0.0 1.6 0.00 0.00 0.00 66 1012.2
20260905220009 33 330 0.0 0.0 0.00 0.00 0.00 66 1012.2
20260905215513 33 340 0.0 0.0 0.00 0.00 0.00 66 1012.2
20260905215009 34 340 0.0 0.0 0.00 0.00 0.00 64 1012.1
20260905214510 35 340 0.0 0.0 0.00 0.00 0.00 63 1012.1
20260905214009 35 340 0.0 0.0 0.00 0.00 0.00 62 1012.1
20260905213508 35 349 0.0 0.0 0.00 0.00 0.00 63 1012.1
20260905213009 35 333 0.0 0.0 0.00 0.00 0.00 64 1012.1
20260905212509 34 333 0.0 1.6 0.00 0.00 0.00 63 1012.1
20260905212010 34 333 0.0 1.6 0.00 0.00 0.00 62 1012.1
20260905211008 35 345 0.0 0.0 0.00 0.00 0.00 61 1012.0
20260905210508 35 345 0.0 0.0 0.00 0.00 0.00 60 1012.1
20260905210008 35 336 0.0 0.0 0.00 0.00 0.00 61 1012.0
20260905205508 35 336 0.0 0.0 0.00 0.00 0.00 62 1012.0
20260905205008 35 336 0.0 0.0 0.00 0.00 0.00 62 1012.1
20260905204511 35 336 0.0 1.6 0.00 0.00 0.00 64 1012.1
20260905204007 34 336 0.0 1.6 0.00 0.00 0.00 64 1012.2
20260905203508 34 338 0.0 0.0 0.00 0.00 0.00 63 1012.2
20260905203008 35 337 0.0 1.6 0.00 0.00 0.00 62 1012.3
20260905202507 35 347 0.0 1.6 0.00 0.00 0.00 63 1012.4
20260905202007 35 347 0.0 0.0 0.00 0.00 0.00 60 1012.3
20260905201007 35 332 0.0 0.0 0.00 0.00 0.00 62 1012.4
20260905200509 35 338 0.0 1.6 0.00 0.00 0.00 63 1012.5
20260905200007 35 337 0.0 0.0 0.00 0.00 0.00 62 1012.4
20260905195510 34 337 0.0 1.6 0.00 0.00 0.00 66 1012.4
20260905195006 34 337 0.0 1.6 0.00 0.00 0.00 63 1012.4
20260905194506 34 335 0.0 1.6 0.00 0.00 0.00 64 1012.3
20260905194006 34 336 0.0 1.6 0.00 0.00 0.00 65 1012.3
20260905193504 34 335 0.0 0.0 0.00 0.00 0.00 65 1012.5
20260905193006 34 336 0.0 0.0 0.00 0.00 0.00 65 1012.5
20260905192505 34 336 0.0 0.0 0.00 0.00 0.00 63 1012.6
20260905192005 34 336 0.0 0.0 0.00 0.00 0.00 64 1012.6
20260905191005 35 338 0.0 0.0 0.00 0.00 0.00 62 1012.6
20260905190506 35 338 0.0 0.0 0.00 0.00 0.00 64 1012.6
20260905190005 34 338 0.0 0.0 0.00 0.00 0.00 65 1012.6
20260905185504 34 338 0.0 1.6 0.00 0.00 0.00 65 1012.6
20260905185004 34 338 0.0 1.6 0.00 0.00 0.00 64 1012.7
20260905184505 34 338 0.0 1.6 0.00 0.00 0.00 63 1012.9
20260905184004 34 338 0.0 1.6 0.00 0.00 0.00 64 1012.9
20260905183504 34 338 0.0 0.0 0.00 0.00 0.00 64 1012.9
20260905183004 35 338 0.0 1.6 0.00 0.00 0.00 62 1012.9
20260905182504 35 338 0.0 1.6 0.00 0.00 0.00 62 1012.9
20260905182004 35 338 0.0 1.6 0.00 0.00 0.00 61 1013.0
20260905181002 35 338 0.0 0.0 0.00 0.00 0.00 64 1013.0
20260905180502 35 338 0.0 3.2 0.00 0.00 0.00 60 1013.0
20260905180002 35 338 0.0 3.2 0.00 0.00 0.00 62 1013.0
20260905175502 35 326 0.0 3.2 0.00 0.00 0.00 62 1013.0
20260905175000 35 320 0.0 3.2 0.00 0.00 0.00 61 1013.0
20260905174500 35 354 0.0 1.6 0.00 0.00 0.00 60 1013.1
20260905174101 35 84 0.0 8.0 0.00 0.00 0.00 62 1013.1
20260905173601 35 86 0.0 8.0 0.00 0.00 0.00 61 1013.2
20260905173059 35 96 1.6 6.4 0.00 0.00 0.00 61 1013.2
20260905172600 35 28 0.0 0.0 0.00 0.00 0.00 62 1013.2
20260905172058 35 28 0.0 4.8 0.00 0.00 0.00 64 1013.2
20260905171657 35 105 0.0 3.2 0.00 0.00 0.00 64 1013.2
20260905171056 35 79 0.0 1.6 0.00 0.00 0.00 62 1013.3
20260905170556 35 27 0.0 1.6 0.00 0.00 0.00 61 1013.3
20260905170059 35 27 0.0 1.6 0.00 0.00 0.00 62 1013.4
20260905165554 35 66 0.0 1.6 0.00 0.00 0.00 64 1013.4
20260905165056 35 93 0.0 1.6 0.00 0.00 0.00 65 1013.4
20260905164552 35 63 0.0 1.6 0.00 0.00 0.00 64 1013.5
20260905164051 34 32 0.0 1.6 0.00 0.00 0.00 64 1013.5
20260905163550 34 346 0.0 1.6 0.00 0.00 0.00 66 1013.5
20260905163048 33 346 0.0 1.6 0.00 0.00 0.00 66 1013.5
20260905162546 33 346 0.0 1.6 0.00 0.00 0.00 65 1013.5
20260905162044 33 25 0.0 1.6 0.00 0.00 0.00 66 1013.5
20260905161644 33 60 0.0 1.6 0.00 0.00 0.00 68 1013.6
20260905161044 33 62 0.0 1.6 0.00 0.00 0.00 68 1013.6
20260905160544 33 63 0.0 1.6 0.00 0.00 0.00 68 1013.6
20260905160047 32 331 0.0 1.6 0.00 0.00 0.00 69 1013.6
20260905155539 32 331 0.0 1.6 0.00 0.00 0.00 71 1013.5
20260905155039 32 330 0.0 3.2 0.00 0.00 0.00 70 1013.5
20260905154551 32 62 0.0 3.2 0.00 0.00 0.00 69 1013.6
20260905154038 32 320 0.0 0.0 0.00 0.00 0.00 69 1013.5
20260905153538 32 320 0.0 0.0 0.00 0.00 0.00 70 1013.5
20260905153036 32 319 0.0 0.0 0.00 0.00 0.00 69 1013.4
20260905152535 32 319 0.0 0.0 0.00 0.00 0.00 71 1013.3
20260905152033 32 319 0.0 0.0 0.00 0.00 0.00 71 1013.4
20260905151632 31 319 0.0 0.0 0.00 0.00 0.00 72 1013.3
20260905151032 31 319 0.0 0.0 0.00 0.00 0.00 72 1013.3
20260905150530 31 319 0.0 0.0 0.00 0.00 0.00 72 1013.2
20260905150029 30 319 0.0 1.6 0.00 0.00 0.00 74 1013.2
20260905145528 30 319 0.0 3.2 0.00 0.00 0.00 73 1013.2
20260905145028 30 319 0.0 4.8 0.00 0.00 0.00 73 1013.2
20260905144538 30 319 0.0 4.8 0.00 0.00 0.00 71 1013.2
20260905144026 30 316 0.0 3.2 0.00 0.00 0.00 73 1013.1
20260905143525 30 316 0.0 3.2 0.00 0.00 0.00 72 1013.0
20260905143025 30 271 0.0 6.4 0.00 0.00 0.00 74 1013.0
20260905142525 30 311 0.0 6.4 0.00 0.00 0.00 71 1013.0
20260905142028 30 263 0.0 1.6 0.00 0.00 0.00 73 1012.9
20260905141624 30 262 0.0 1.6 0.00 0.00 0.00 73 1013.0
20260905141024 30 232 0.0 3.2 0.00 0.00 0.00 73 1012.9
20260905140524 30 323 0.0 4.8 0.00 0.00 0.00 73 1012.9
20260905140030 30 322 0.0 4.8 0.00 0.00 0.00 73 1012.9
20260905135523 30 276 0.0 0.0 0.00 0.00 0.00 75 1013.0
20260905135021 29 276 0.0 1.6 0.00 0.00 0.00 75 1012.8
20260905134521 29 260 0.0 1.6 0.00 0.00 0.00 75 1012.9
20260905134021 29 260 0.0 0.0 0.00 0.00 0.00 76 1012.9
20260905133524 29 260 0.0 0.0 0.00 0.00 0.00 76 1012.7
20260905133020 29 260 0.0 0.0 0.00 0.00 0.00 76 1012.7
20260905132520 29 260 0.0 0.0 0.00 0.00 0.00 77 1012.8
20260905132023 29 260 0.0 0.0 0.00 0.00 0.00 76 1012.8
20260905131621 29 260 0.0 0.0 0.00 0.00 0.00 77 1012.9
20260905131019 29 260 0.0 0.0 0.00 0.00 0.00 78 1012.9
20260905130520 29 260 0.0 0.0 0.00 0.00 0.00 79 1012.9
20260905130018 28 260 0.0 0.0 0.00 0.00 0.00 81 1012.9
20260905125515 28 260 0.0 0.0 0.00 0.00 0.00 82 1012.7
20260905125013 27 260 0.0 0.0 0.00 0.00 0.00 83 1012.5
20260905124512 27 263 0.0 0.0 0.00 0.00 0.00 84 1012.5
20260905124010 26 263 0.0 0.0 0.00 0.00 0.00 85 1012.5
20260905123509 26 263 0.0 0.0 0.00 0.00 0.00 85 1012.6
20260905123009 26 263 0.0 0.0 0.00 0.00 0.00 85 1012.5
20260905122516 26 263 0.0 0.0 0.00 0.00 0.00 85 1012.4
20260905122009 26 263 0.0 0.0 0.00 0.00 0.00 86 1012.4
20260905121609 25 263 0.0 0.0 0.00 0.00 0.00 87 1012.2
20260905121008 25 263 0.0 0.0 0.00 0.00 0.00 87 1012.3
20260905120509 25 263 0.0 0.0 0.00 0.00 0.00 87 1012.2
20260905120008 25 263 0.0 0.0 0.00 0.00 0.00 86 1012.2
20260905115508 25 263 0.0 0.0 0.00 0.00 0.00 86 1012.1
20260905115009 25 231 0.0 1.6 0.00 0.00 0.00 86 1012.1
20260905114509 25 231 0.0 1.6 0.00 0.00 0.00 86 1012.0
20260905114007 25 231 0.0 1.6 0.00 0.00 0.00 86 1012.0
20260905113512 25 231 0.0 3.2 0.00 0.00 0.00 86 1011.9
20260905113009 25 247 0.0 3.2 0.00 0.00 0.00 86 1011.9
20260905112507 25 240 0.0 0.0 0.00 0.00 0.00 86 1011.9
20260905112007 25 240 0.0 0.0 0.00 0.00 0.00 86 1011.9
20260905111615 25 240 0.0 0.0 0.00 0.00 0.00 85 1011.9
20260905111008 25 240 0.0 0.0 0.00 0.00 0.00 85 1011.9
20260905110511 25 240 0.0 0.0 0.00 0.00 0.00 85 1011.9
20260905110007 25 240 0.0 0.0 0.00 0.00 0.00 85 1011.9
20260905105507 25 240 0.0 1.6 0.00 0.00 0.00 85 1011.8
20260905105007 25 240 0.0 1.6 0.00 0.00 0.00 86 1011.9
20260905104506 25 240 0.0 0.0 0.00 0.00 0.00 85 1011.8
20260905104006 25 245 0.0 0.0 0.00 0.00 0.00 85 1011.8
20260905103505 25 245 0.0 0.0 0.00 0.00 0.00 84 1011.8
20260905103005 25 245 0.0 0.0 0.00 0.00 0.00 84 1011.9
20260905102505 25 245 0.0 0.0 0.00 0.00 0.00 83 1011.9
20260905102004 25 245 0.0 0.0 0.00 0.00 0.00 83 1011.9
20260905101605 26 245 0.0 0.0 0.00 0.00 0.00 83 1012.0
20260905101003 26 245 0.0 0.0 0.00 0.00 0.00 82 1012.0
20260905100504 26 245 0.0 0.0 0.00 0.00 0.00 82 1012.0
20260905100004 26 245 0.0 1.6 0.00 0.00 0.00 83 1012.0
20260905095503 26 245 0.0 1.6 0.00 0.00 0.00 83 1011.9
20260905095004 26 261 0.0 0.0 0.00 0.00 0.00 83 1011.9
20260905094503 26 239 0.0 0.0 0.00 0.00 0.00 83 1011.9
20260905094003 26 236 0.0 0.0 0.00 0.00 0.00 83 1012.0
20260905093503 26 237 0.0 0.0 0.00 0.00 0.00 82 1012.1
20260905093002 26 236 0.0 0.0 0.00 0.00 0.00 82 1012.1
20260905092501 26 236 0.0 1.6 0.00 0.00 0.00 82 1012.1
20260905092004 26 236 0.0 1.6 0.00 0.00 0.00 82 1012.2
20260905091609 26 236 0.0 1.6 0.00 0.00 0.00 82 1012.1
20260905091003 26 233 0.0 1.6 0.00 0.00 0.00 82 1012.1
20260905090502 26 226 0.0 0.0 0.00 0.00 0.00 82 1012.1
20260905090003 26 226 0.0 1.6 0.00 0.00 0.00 82 1012.1
20260905085501 26 226 0.0 1.6 0.00 0.00 0.00 82 1012.1
20260905085003 26 214 0.0 1.6 0.00 0.00 0.00 82 1012.0
20260905084501 26 214 0.0 1.6 0.00 0.00 0.00 82 1012.0
20260905084001 26 262 0.0 1.6 0.00 0.00 0.00 82 1012.0
20260905083600 26 214 0.0 1.6 0.00 0.00 0.00 83 1012.0
20260905083101 26 148 0.0 0.0 0.00 0.00 0.00 83 1012.1
20260905082600 26 148 0.0 0.0 0.00 0.00 0.00 83 1012.1
20260905082059 26 148 0.0 0.0 0.00 0.00 0.00 82 1012.2
20260905081611 26 148 0.0 0.0 0.00 0.00 0.00 83 1012.2
20260905081058 26 148 0.0 0.0 0.00 0.00 0.00 83 1012.2
20260905080558 26 148 0.0 0.0 0.00 0.00 0.00 83 1012.2
20260905080101 26 148 0.0 0.0 0.00 0.00 0.00 83 1012.2
20260905075602 26 148 0.0 0.0 0.00 0.00 0.00 83 1012.2
20260905075057 26 148 0.0 0.0 0.00 0.00 0.00 84 1012.3
20260905074556 26 148 0.0 0.0 0.00 0.00 0.00 84 1012.3
20260905074055 25 148 0.0 0.0 0.00 0.00 0.00 85 1012.3
20260905073554 25 148 0.0 0.0 0.00 0.00 0.00 85 1012.3
20260905073053 25 146 0.0 0.0 0.00 0.00 0.00 86 1012.3
20260905072552 25 146 0.0 1.6 0.00 0.00 0.00 87 1012.3
20260905072052 25 144 0.0 1.6 0.00 0.00 0.00 87 1012.4
20260905071559 25 104 0.0 0.0 0.00 0.00 0.00 88 1012.4
20260905071055 25 104 0.0 0.0 0.00 0.00 0.00 88 1012.4
20260905070555 25 104 0.0 0.0 0.00 0.00 0.00 88 1012.4
20260905070052 25 104 0.0 0.0 0.00 0.00 0.00 88 1012.5
20260905065555 25 104 0.0 0.0 0.00 0.00 0.00 89 1012.5
20260905065051 25 104 0.0 0.0 0.00 0.00 0.00 89 1012.5
20260905064556 25 104 0.0 0.0 0.00 0.00 0.00 89 1012.5
20260905064051 25 104 0.0 0.0 0.00 0.00 0.00 89 1012.5
20260905063551 25 104 0.0 0.0 0.00 0.00 0.00 89 1012.6
20260905063051 25 104 0.0 0.0 0.00 0.00 0.00 90 1012.6
20260905062554 25 104 0.0 0.0 0.00 0.00 0.00 90 1012.5
20260905062050 25 104 0.0 0.0 0.00 0.00 0.00 90 1012.5
20260905061607 25 104 0.0 0.0 0.00 0.00 0.00 90 1012.6
20260905061050 25 104 0.0 0.0 0.00 0.00 0.00 90 1012.6
20260905060549 24 104 0.0 0.0 0.00 0.00 0.00 90 1012.6
20260905060049 24 104 0.0 0.0 0.00 0.00 0.00 90 1012.8
20260905055548 24 104 0.0 0.0 0.00 0.00 0.00 90 1012.8
20260905055049 24 104 0.0 0.0 0.00 0.00 0.00 89 1012.8
20260905054550 24 104 0.0 0.0 0.00 0.00 0.00 89 1012.8
20260905054047 25 104 0.0 0.0 0.00 0.00 0.00 89 1012.8
20260905053548 25 104 0.0 0.0 0.00 0.00 0.00 89 1012.8
20260905053050 25 104 0.0 0.0 0.00 0.00 0.00 89 1012.8
20260905052546 25 104 0.0 0.0 0.00 0.00 0.00 89 1012.8
20260905052047 25 104 0.0 0.0 0.00 0.00 0.00 89 1012.7
20260905051545 25 104 0.0 0.0 0.00 0.00 0.00 89 1012.6
20260905051042 25 104 0.0 0.0 0.00 0.00 0.00 89 1012.6
20260905050542 25 104 0.0 0.0 0.00 0.00 0.00 88 1012.7
20260905050042 25 104 0.0 0.0 0.00 0.00 0.00 88 1012.7
20260905045543 25 104 0.0 0.0 0.00 0.00 0.00 88 1012.7
20260905045042 25 104 0.0 0.0 0.00 0.00 0.00 88 1012.7
20260905044542 25 104 0.0 0.0 0.00 0.00 0.00 88 1012.7
20260905044045 25 104 0.0 0.0 0.00 0.00 0.00 88 1012.7
20260905043541 25 104 0.0 0.0 0.00 0.00 0.00 87 1012.8
20260905043106 25 104 0.0 0.0 0.00 0.00 0.00 87 1012.9
20260905042540 25 104 0.0 0.0 0.00 0.00 0.00 87 1012.8
20260905042041 25 104 0.0 0.0 0.00 0.00 0.00 86 1012.8
20260905041541 26 104 0.0 0.0 0.00 0.00 0.00 86 1012.8
20260905041041 26 104 0.0 0.0 0.00 0.00 0.00 86 1012.8
20260905040541 26 104 0.0 0.0 0.00 0.00 0.00 86 1012.7
20260905040056 26 104 0.0 0.0 0.00 0.00 0.00 86 1012.6
20260905035541 26 104 0.0 0.0 0.00 0.00 0.00 86 1012.5
20260905035041 26 104 0.0 0.0 0.00 0.00 0.00 86 1012.5
20260905034541 26 104 0.0 1.6 0.00 0.00 0.00 87 1012.4
20260905034043 26 104 0.0 1.6 0.00 0.00 0.00 87 1012.3
20260905033540 26 257 0.0 0.0 0.00 0.00 0.00 88 1012.4
20260905033042 26 259 0.0 0.0 0.00 0.00 0.00 87 1012.6
20260905032540 26 259 0.0 0.0 0.00 0.00 0.00 86 1012.7
20260905032039 26 259 0.0 0.0 0.00 0.00 0.00 86 1012.7
20260905031541 26 259 0.0 0.0 0.00 0.00 0.00 86 1012.7
20260905031040 26 259 0.0 0.0 0.00 0.00 0.00 86 1012.6
20260905030539 26 259 0.0 0.0 0.00 0.00 0.00 85 1012.6
20260905030042 26 259 0.0 0.0 0.00 0.00 0.00 85 1012.6
20260905025539 26 259 0.0 0.0 0.00 0.00 0.00 85 1012.5
20260905025040 26 259 0.0 0.0 0.00 0.00 0.00 85 1012.5
20260905024539 26 259 0.0 0.0 0.00 0.00 0.00 85 1012.4
20260905024039 26 259 0.0 0.0 0.00 0.00 0.00 86 1012.3
20260905023541 26 259 0.0 0.0 0.00 0.00 0.00 86 1012.2
20260905023043 26 259 0.0 0.0 0.00 0.00 0.00 86 1012.3